[[{"header":{"parameterUnit":"m.s-1","parameterCategory":2,"la1":30.2991,"la2":30.254,"lo1":-89.0895,"lo2":-89.0444,"dy":0.0017,"dx":0.0017,"nx":28,"ny":28,"refTime":"2024-05-28T21:00:00:Z","depth":"0","parameterNumber":2,"parameterNumberName":"U-component_of_CURRENTS"},"data":[0,0,0,0,0,0,0,0,0,0,0,0,0,0,0,0,0,0,0,0,0,0,0,0,0,0,0,0,0,0,0,0,0,0,0,0,0,0,0,0,0,0,0,0,0,0,0,0,0,0,0,0,0,0,0,0,0,0,-0.2632,-0.2632,0,-0.2649,-0.2649,-0.2649,-0.2603,-0.2602,-0.2601,-0.26,-0.2393,-0.2389,-0.2384,0,0,0,0,0,0,0,0,0,0,0,0,0,-0.247,-0.2474,-0.2632,-0.2632,-0.2633,-0.2649,-0.2649,-0.2649,-0.2604,-0.2602,-0.2601,-0.2599,-0.2394,-0.2389,-0.2384,0,0,0,0,0,0,0,0,0,0,0,0,0,-0.2518,-0.2475,-0.2632,-0.2614,-0.2612,-0.2649,-0.2649,-0.2649,-0.2604,-0.2602,-0.26,-0.2598,-0.2396,-0.239,-0.2383,-0.238,0,0,-0.2363,-0.2361,0,0,0,0,0,0,0,0,-0.2515,-0.2524,-0.2616,-0.2615,-0.2614,-0.2624,-0.2517,-0.2549,-0.2604,-0.2605,-0.26,-0.2597,-0.2452,-0.2441,-0.2449,-0.2371,-0.2362,-0.2363,-0.2359,-0.2356,-0.2354,0,0,0,0,0,0,0,-0.2512,-0.2522,-0.2637,-0.2617,-0.2615,-0.2574,-0.2579,-0.2523,-0.2533,-0.2605,-0.2602,-0.2608,-0.2449,-0.2455,-0.2443,-0.2359,-0.2363,-0.2357,-0.2353,-0.2351,-0.2286,-0.2288,0,0,0,0,0,0,-0.2522,-0.252,-0.2636,-0.2637,-0.2561,-0.2579,-0.2585,-0.2621,-0.2538,-0.2527,-0.2609,-0.2606,-0.2467,-0.2451,-0.2435,-0.2419,-0.2356,-0.235,-0.2346,-0.2284,-0.2286,-0.2289,0,0,0,0,0,0,-0.2519,-0.2534,-0.2636,-0.2578,-0.2588,-0.2585,-0.2625,-0.2622,-0.2618,-0.2545,-0.2528,-0.2607,-0.2465,-0.2444,-0.2409,-0.241,-0.2347,-0.2341,-0.2281,-0.2284,-0.2287,-0.239,0,0,0,0,0,0,-0.2515,-0.2533,-0.2558,-0.258,-0.2592,-0.2669,-0.2627,-0.2624,-0.2626,-0.2621,-0.2537,-0.2517,-0.2462,-0.242,-0.2403,-0.24,-0.2336,-0.2278,-0.2283,-0.2286,-0.2384,-0.2397,-0.2407,0,0,0,0,0,-0.251,-0.2546,-0.256,-0.2573,-0.263,-0.2671,-0.2674,-0.2661,-0.2628,-0.2645,-0.2597,-0.2519,-0.2433,-0.2417,-0.2396,-0.2391,-0.2276,-0.2281,-0.2286,-0.2379,-0.2394,-0.2407,0,0,0,0,0,0,-0.2463,-0.2546,-0.2561,-0.2615,-0.265,-0.2664,-0.2666,-0.2664,-0.2644,-0.2615,-0.2545,-0.2525,-0.2504,-0.2443,-0.2427,-0.2392,-0.2342,-0.2343,-0.242,-0.2433,-0.2444,-0.2369,-0.2331,0,0,0,0,0,-0.2477,-0.2538,-0.2593,-0.2631,-0.2648,-0.2659,-0.2669,-0.2666,-0.2654,-0.2643,-0.2604,-0.2548,-0.2514,-0.2469,-0.2441,-0.2404,-0.2295,-0.2391,-0.2403,-0.2413,-0.2343,-0.2242,-0.2236,-0.2305,-0.2305,-0.2305,0,0,-0.2457,-0.2518,-0.2542,-0.2628,-0.264,-0.2659,-0.2659,-0.2673,-0.2681,-0.2618,-0.2611,-0.2595,-0.2524,-0.2509,-0.2488,-0.2444,-0.2345,-0.2419,-0.2428,-0.2349,-0.2246,-0.2238,-0.2232,-0.2308,-0.2308,-0.2307,0,0,-0.2433,-0.2512,-0.2538,-0.2576,-0.2621,-0.2652,-0.266,-0.2693,-0.2701,-0.2718,-0.2675,-0.2653,-0.2615,-0.256,-0.2522,-0.2571,-0.2432,-0.2579,-0.2538,-0.2446,-0.2437,-0.2427,-0.2301,-0.2279,-0.2558,-0.2558,-0.2558,0,-0.2394,-0.2455,-0.2544,-0.2566,-0.2579,-0.2647,-0.2641,-0.2682,-0.2704,-0.2681,-0.2723,-0.2648,-0.2627,-0.2533,-0.2578,-0.2587,-0.2498,-0.2492,-0.2454,-0.2443,-0.2431,-0.2303,-0.2278,-0.2564,-0.2563,-0.2563,-0.2562,0,-0.2376,-0.2421,-0.2433,-0.2504,-0.2538,-0.2554,-0.2621,-0.2646,-0.2683,-0.27,-0.2672,-0.2674,-0.2602,-0.2631,-0.2619,-0.2529,-0.2482,-0.2503,-0.2406,-0.2429,-0.2295,-0.2267,-0.2572,-0.257,-0.2568,-0.2567,0,0,-0.227,-0.2398,-0.2391,-0.2409,-0.2501,-0.2519,-0.2548,-0.2573,-0.2534,-0.2612,-0.2534,-0.2572,-0.2569,-0.2526,-0.252,-0.2447,-0.2354,-0.244,-0.2433,-0.2289,-0.2105,-0.1989,-0.1946,-0.237,-0.2365,-0.2362,-0.2049,0,-0.2209,-0.2251,-0.2325,-0.2332,-0.2353,-0.2417,-0.2433,-0.2459,-0.2498,-0.2463,-0.2467,-0.2438,-0.2534,-0.25,-0.2454,-0.2375,-0.228,-0.2432,-0.212,-0.2109,-0.1983,-0.191,-0.1795,-0.1498,-0.202,-0.2015,-0.2012,0,-0.2133,-0.2191,-0.2196,-0.2252,-0.2254,-0.227,-0.226,-0.229,-0.2275,-0.2288,-0.2259,-0.2274,-0.2203,-0.2296,-0.213,-0.2223,-0.2155,-0.2098,-0.2086,-0.1896,-0.1938,-0.1557,-0.1425,-0.1471,-0.1967,-0.1971,-0.1974,0,-0.2005,-0.2076,-0.2086,-0.2106,-0.2188,-0.2167,-0.2209,-0.2214,-0.2163,-0.2171,-0.2075,-0.2074,-0.1986,-0.1956,-0.191,-0.2006,-0.1674,-0.1798,-0.1602,-0.1593,-0.138,-0.1359,-0.1215,-0.162,-0.1621,-0.1622,-0.1623,0,-0.1904,-0.1893,-0.2032,-0.2026,-0.2007,-0.2091,-0.2017,-0.2059,-0.1985,-0.1826,-0.1975,-0.1774,-0.1891,-0.1744,-0.1776,-0.1562,-0.1572,-0.1515,-0.148,-0.1419,-0.1406,-0.1344,-0.1419,-0.161,-0.1613,-0.1615,-0.1617,0,-0.1722,-0.1823,-0.1836,-0.1927,-0.1948,-0.1934,-0.19,-0.1784,-0.1803,-0.157,-0.1546,-0.1477,-0.1317,-0.1375,-0.1253,-0.1302,-0.1146,-0.1104,-0.1014,-0.0973,-0.0899,-0.0984,-0.0701,-0.0691,-0.0842,-0.0837,-0.0833,0,-0.163,-0.1628,-0.1739,-0.1715,-0.1748,-0.1741,-0.1657,-0.1697,-0.153,-0.1311,-0.1105,-0.0949,-0.0732,-0.0567,-0.0678,-0.0666,-0.08,-0.0553,-0.0735,-0.0791,-0.0862,-0.0964,-0.0988,-0.0502,-0.0495,-0.0489,-0.0485,0,-0.1438,-0.1488,-0.1508,-0.148,-0.1428,-0.1344,-0.1239,-0.1102,-0.1017,-0.0823,-0.0462,-0.0292,-0.0139,-0.0053,-0.0126,-0.0177,-0.056,-0.0437,-0.0507,-0.0547,-0.0625,-0.0634,-0.0818,-0.0436,-0.0441,-0.0445,-0.0448,-0.0449,-0.1276,-0.126,-0.1274,-0.1212,-0.1124,-0.092,-0.0815,-0.063,-0.0387,-0.0097,0.0041,0.0277,0.038,0.03,0.0194,0.0015,-0.011,-0.0058,-0.0138,-0.0223,-0.0257,-0.031,0.0091,0.0089,0.0087,0.0086,0.0085,0,-0.1084,-0.1051,-0.0973,-0.09,-0.0681,-0.0715,-0.0467,-0.0322,-0.0024,0.0207,0.0456,0.0662,0.0768,0.0633,0.0496,0.034,0.0135,0.0215,0.0063,0.0031,0.002,-0.0018,0.0394,0.0394,0.0394,0.0394,0.0394,0.0394,-0.0983,-0.0863,-0.083,-0.0481,-0.0388,-0.0115,0.002,0.0186,0.0337,0.0596,0.0694,0.0744,0.0773,0.0799,0.0609,0.0471,0.0244,0.0254,0.0116,0.0036,-0.0001,-0.0035,-0.0089,0.0301,0.03,0.0159,0.0157,0.0156]},{"header":{"parameterUnit":"m.s-1","parameterCategory":2,"la1":30.2991,"la2":30.254,"lo1":-89.0895,"lo2":-89.0444,"dy":0.0017,"dx":0.0017,"nx":28,"ny":28,"refTime":"2024-05-28T21:00:00:Z","depth":"0","parameterNumber":3,"parameterNumberName":"V-component_of_CURRENTS"},"data":[0,0,0,0,0,0,0,0,0,0,0,0,0,0,0,0,0,0,0,0,0,0,0,0,0,0,0,0,0,0,0,0,0,0,0,0,0,0,0,0,0,0,0,0,0,0,0,0,0,0,0,0,0,0,0,0,0,0,0.0356,0.0359,0,0.0606,0.0609,0.0612,0.0736,0.0736,0.0736,0.0735,0.0913,0.0918,0.0923,0,0,0,0,0,0,0,0,0,0,0,0,0,0.0027,0.0032,0.0356,0.0359,0.0362,0.0605,0.0609,0.0613,0.0736,0.0736,0.0736,0.0735,0.0912,0.0918,0.0924,0,0,0,0,0,0,0,0,0,0,0,0,0,0.0215,0.0034,0.0356,0.0451,0.0462,0.0605,0.0609,0.0614,0.0736,0.0736,0.0735,0.0735,0.091,0.0917,0.0924,0.0977,0,0,0.0947,0.095,0,0,0,0,0,0,0,0,0.0204,0.0227,0.0434,0.0444,0.0457,0.0637,0.0558,0.0731,0.0736,0.0635,0.0735,0.0735,0.0813,0.0828,0.0881,0.0985,0.0993,0.0948,0.0952,0.0956,0.0958,0,0,0,0,0,0,0,0.0191,0.0217,0.0458,0.0437,0.0451,0.0495,0.0521,0.0592,0.0723,0.0644,0.0652,0.0676,0.0819,0.0874,0.0886,0.0996,0.0948,0.0954,0.0959,0.0962,0.1137,0.1138,0,0,0,0,0,0,0.0154,0.0205,0.045,0.0465,0.0324,0.05,0.053,0.0582,0.0725,0.0746,0.0676,0.0681,0.0861,0.0877,0.0892,0.0903,0.0955,0.0962,0.0967,0.1137,0.1138,0.1138,0,0,0,0,0,0,0.0146,0.0175,0.044,0.0336,0.0373,0.0506,0.0563,0.0587,0.0634,0.075,0.077,0.0697,0.0861,0.0882,0.0955,0.0913,0.0966,0.0973,0.1137,0.1137,0.1138,0.0962,0,0,0,0,0,0,0.0136,0.0171,0.0199,0.0335,0.0377,0.0503,0.0564,0.0592,0.0648,0.0657,0.0775,0.0792,0.0863,0.0943,0.0962,0.0924,0.0978,0.1137,0.1137,0.1138,0.0968,0.0957,0.0947,0,0,0,0,0,0.0124,0.0141,0.02,0.0229,0.0412,0.0502,0.0527,0.0622,0.0649,0.0664,0.0752,0.0788,0.0959,0.095,0.0972,0.0934,0.1137,0.1137,0.1138,0.0973,0.0959,0.0947,0,0,0,0,0,0,0.0004,0.016,0.0226,0.029,0.0384,0.0521,0.0534,0.0609,0.0696,0.0689,0.0803,0.0827,0.0878,0.0942,0.0929,0.0992,0.1049,0.1054,0.0916,0.0904,0.0894,0.0845,0.0985,0,0,0,0,0,-0.0005,0.0052,0.0199,0.0245,0.0278,0.0407,0.0456,0.0521,0.0614,0.0652,0.0745,0.0831,0.0901,0.0928,0.1013,0.1044,0.1089,0.1035,0.1024,0.1014,0.0994,0.1036,0.1025,0.1139,0.1139,0.1139,0,0,-0.0042,0.005,0.0083,0.0223,0.0293,0.0337,0.0434,0.0482,0.0524,0.0654,0.0721,0.0806,0.091,0.0952,0.0976,0.0992,0.1007,0.1015,0.1005,0.099,0.1035,0.1023,0.1013,0.114,0.114,0.114,0,0,-0.0124,-0.0012,-0.0006,0.0066,0.0167,0.0261,0.0267,0.0402,0.046,0.0547,0.064,0.0694,0.0828,0.0876,0.0919,0.0902,0.0964,0.0931,0.0817,0.0858,0.0847,0.0839,0.087,0.0866,0.0907,0.0907,0.0906,0,-0.018,-0.0124,0.0003,0.0016,0.0063,0.0214,0.0218,0.0307,0.0455,0.0495,0.0539,0.0711,0.0783,0.0819,0.0807,0.0868,0.0909,0.0845,0.0837,0.083,0.0825,0.086,0.0857,0.0898,0.0899,0.09,0.0901,0,-0.0252,-0.0208,-0.0217,-0.0123,-0.0058,-0.0036,0.0102,0.0169,0.0264,0.0362,0.0439,0.0552,0.0648,0.0667,0.0728,0.0719,0.0768,0.0826,0.0851,0.0801,0.0843,0.0843,0.0886,0.0889,0.0892,0.0894,0,0,-0.0361,-0.0282,-0.0279,-0.0252,-0.0129,-0.0074,-0.0026,0.0084,0.0129,0.0245,0.0296,0.0384,0.0453,0.0506,0.0583,0.0593,0.0574,0.0669,0.0675,0.0667,0.0657,0.0666,0.0668,0.0631,0.063,0.063,0.0697,0,-0.0452,-0.0469,-0.0386,-0.0371,-0.0358,-0.0215,-0.0156,-0.0042,0.0067,0.0161,0.0248,0.0353,0.0393,0.0447,0.0445,0.0576,0.057,0.055,0.0737,0.0741,0.0728,0.0667,0.0726,0.0789,0.0698,0.0698,0.0698,0,-0.0532,-0.0522,-0.0558,-0.0457,-0.0437,-0.0403,-0.0273,-0.0198,-0.0053,0.004,0.0108,0.0233,0.0282,0.034,0.0438,0.0429,0.0508,0.0583,0.059,0.0655,0.075,0.0833,0.0794,0.0772,0.07,0.07,0.07,0,-0.0641,-0.0614,-0.0644,-0.0619,-0.0504,-0.0489,-0.0404,-0.0262,-0.0123,-0.0031,0.0109,0.0136,0.0275,0.0302,0.0459,0.0458,0.0577,0.0614,0.0682,0.0685,0.0799,0.0812,0.0733,0.0655,0.0655,0.0654,0.0654,0,-0.0735,-0.0738,-0.0705,-0.0712,-0.0677,-0.0585,-0.0479,-0.0404,-0.0214,-0.0001,0.0047,0.0255,0.0286,0.04,0.0433,0.0555,0.0563,0.0638,0.0692,0.0742,0.0748,0.079,0.0766,0.0657,0.0656,0.0656,0.0656,0,-0.0819,-0.0817,-0.0818,-0.0763,-0.0728,-0.0701,-0.0441,-0.0303,-0.0175,0.0099,0.0169,0.0385,0.051,0.0513,0.061,0.0615,0.0678,0.0714,0.0753,0.0807,0.0802,0.0767,0.0755,0.0796,0.0763,0.0763,0.0763,0,-0.0858,-0.0891,-0.0851,-0.0782,-0.0753,-0.0642,-0.048,-0.0307,-0.01,0.0258,0.0427,0.0598,0.0824,0.0877,0.0796,0.0755,0.0763,0.0831,0.0814,0.0772,0.0775,0.0745,0.0779,0.0908,0.0909,0.091,0.0911,0,-0.0905,-0.0908,-0.0893,-0.0749,-0.0624,-0.0445,-0.023,-0.0053,0.0239,0.0476,0.0856,0.1035,0.1101,0.1118,0.0979,0.0953,0.0809,0.0856,0.0823,0.086,0.0817,0.0896,0.0882,0.0923,0.0921,0.0921,0.092,0.092,-0.0902,-0.0886,-0.0811,-0.0641,-0.0492,-0.0244,-0.0043,0.0236,0.0549,0.0959,0.1142,0.1444,0.1429,0.1243,0.1121,0.0914,0.0912,0.0951,0.0909,0.0879,0.0904,0.0882,0.0973,0.0972,0.0971,0.0971,0.097,0,-0.0851,-0.0774,-0.0631,-0.0441,-0.0213,-0.0157,0.0186,0.0432,0.0807,0.1128,0.1465,0.1723,0.1618,0.1423,0.1132,0.1019,0.0965,0.0979,0.0957,0.0992,0.1,0.0991,0.1078,0.1078,0.1078,0.1078,0.1078,0.1078,-0.0803,-0.0655,-0.0543,-0.0173,-0.0025,0.0303,0.0501,0.0801,0.1069,0.1516,0.1779,0.1977,0.187,0.1374,0.1071,0.1018,0.0977,0.0951,0.093,0.0925,0.0919,0.0914,0.0898,0.0964,0.0964,0.0987,0.0986,0.0986]}],[{"header":{"parameterUnit":"m.s-1","parameterCategory":2,"la1":30.2991,"la2":30.254,"lo1":-89.0895,"lo2":-89.0444,"dy":0.0017,"dx":0.0017,"nx":28,"ny":28,"refTime":"2024-05-28T21:00:00:Z","depth":"2","parameterNumber":2,"parameterNumberName":"U-component_of_CURRENTS"},"data":[0,0,0,0,0,0,0,0,0,0,0,0,0,0,0,0,0,0,0,0,0,0,0,0,0,0,0,0,0,0,0,0,0,0,0,0,0,0,0,0,0,0,0,0,0,0,0,0,0,0,0,0,0,0,0,0,0,0,-0.1738,-0.174,0,-0.1914,-0.1916,-0.1917,-0.1977,-0.1977,-0.1977,-0.1977,-0.1804,-0.18,-0.1796,0,0,0,0,0,0,0,0,0,0,0,0,0,-0.1637,-0.1637,-0.1738,-0.1741,-0.1743,-0.1914,-0.1916,-0.1917,-0.1977,-0.1977,-0.1977,-0.1977,-0.1806,-0.1801,-0.1795,0,0,0,0,0,0,0,0,0,0,0,0,0,-0.1728,-0.1637,-0.1737,-0.1798,-0.1805,-0.1913,-0.1916,-0.1918,-0.1977,-0.1977,-0.1977,-0.1977,-0.1807,-0.1801,-0.1794,-0.1759,0,0,-0.1774,-0.1771,0,0,0,0,0,0,0,0,-0.1723,-0.1731,-0.1786,-0.1794,-0.1803,-0.1928,-0.1818,-0.185,-0.1977,-0.1906,-0.1977,-0.1976,-0.1817,-0.181,-0.1841,-0.1751,-0.1744,-0.1774,-0.177,-0.1767,-0.1765,0,0,0,0,0,0,0,-0.1716,-0.1725,-0.1802,-0.1789,-0.1799,-0.188,-0.189,-0.1826,-0.185,-0.1912,-0.1919,-0.1947,-0.1818,-0.1847,-0.1836,-0.1741,-0.1774,-0.1768,-0.1764,-0.1761,-0.1647,-0.1648,0,0,0,0,0,0,-0.1696,-0.1718,-0.1796,-0.1808,-0.1767,-0.1881,-0.1893,-0.1884,-0.1859,-0.1859,-0.1947,-0.1949,-0.1859,-0.1844,-0.183,-0.1825,-0.1767,-0.1761,-0.1757,-0.1646,-0.1647,-0.1648,0,0,0,0,0,0,-0.1692,-0.17,-0.1789,-0.1774,-0.1792,-0.1882,-0.1873,-0.1887,-0.1932,-0.189,-0.1883,-0.1979,-0.1858,-0.1839,-0.1782,-0.1817,-0.1758,-0.1752,-0.1645,-0.1646,-0.1648,-0.1789,0,0,0,0,0,0,-0.1688,-0.1696,-0.1674,-0.1771,-0.1792,-0.1868,-0.1874,-0.1891,-0.1952,-0.1956,-0.1913,-0.1898,-0.1856,-0.1793,-0.1776,-0.1806,-0.1747,-0.1644,-0.1646,-0.1647,-0.1783,-0.1795,-0.1805,0,0,0,0,0,-0.1683,-0.1691,-0.167,-0.1681,-0.1759,-0.187,-0.1888,-0.195,-0.1953,-0.1984,-0.1943,-0.19,-0.1792,-0.1787,-0.1767,-0.1797,-0.1643,-0.1645,-0.1647,-0.1778,-0.1793,-0.1805,0,0,0,0,0,0,-0.1649,-0.17,-0.1681,-0.17,-0.1772,-0.1882,-0.1936,-0.1958,-0.1961,-0.1955,-0.1896,-0.1878,-0.1853,-0.1793,-0.1789,-0.177,-0.1716,-0.1714,-0.1822,-0.1835,-0.1846,-0.1755,-0.1741,0,0,0,0,0,-0.162,-0.1617,-0.1698,-0.1704,-0.1759,-0.1837,-0.1885,-0.1925,-0.1954,-0.1962,-0.1945,-0.1898,-0.1847,-0.1814,-0.1775,-0.1742,-0.1663,-0.1751,-0.1763,-0.1772,-0.1685,-0.1651,-0.1651,-0.1655,-0.1655,-0.1655,0,0,-0.1616,-0.1632,-0.1635,-0.1693,-0.1765,-0.1811,-0.1867,-0.1963,-0.1953,-0.1929,-0.1928,-0.1937,-0.1847,-0.1837,-0.1819,-0.1787,-0.174,-0.1775,-0.1784,-0.1688,-0.1653,-0.1652,-0.1652,-0.1657,-0.1656,-0.1656,0,0,-0.1604,-0.1624,-0.1621,-0.1671,-0.1761,-0.1822,-0.1847,-0.197,-0.1986,-0.1974,-0.1973,-0.1992,-0.1914,-0.19,-0.1855,-0.1886,-0.1808,-0.19,-0.1869,-0.1843,-0.1841,-0.1838,-0.1784,-0.1775,-0.1898,-0.1899,-0.1899,0,-0.1569,-0.1576,-0.1649,-0.1658,-0.1705,-0.1817,-0.1849,-0.1874,-0.1946,-0.1947,-0.1969,-0.1941,-0.1924,-0.1869,-0.1902,-0.1909,-0.186,-0.1838,-0.1856,-0.1852,-0.1846,-0.179,-0.1779,-0.1906,-0.1905,-0.1904,-0.1903,0,-0.1559,-0.156,-0.1598,-0.161,-0.1669,-0.1745,-0.1801,-0.1847,-0.189,-0.191,-0.1915,-0.1931,-0.1901,-0.1951,-0.1914,-0.1898,-0.1868,-0.1891,-0.1825,-0.1854,-0.1795,-0.178,-0.1916,-0.1913,-0.1911,-0.1909,0,0,-0.1488,-0.1564,-0.1566,-0.1577,-0.1661,-0.1724,-0.1717,-0.1768,-0.1762,-0.1822,-0.1799,-0.181,-0.1873,-0.1824,-0.1867,-0.1852,-0.1843,-0.1848,-0.1844,-0.1792,-0.175,-0.1624,-0.1596,-0.1882,-0.188,-0.1877,-0.1741,0,-0.1457,-0.1467,-0.1509,-0.1539,-0.1592,-0.1662,-0.165,-0.1682,-0.172,-0.1731,-0.1748,-0.1756,-0.1801,-0.184,-0.1825,-0.1848,-0.18,-0.1873,-0.1721,-0.1714,-0.16,-0.1572,-0.151,-0.1371,-0.1725,-0.1723,-0.1721,0,-0.1431,-0.1448,-0.1474,-0.1529,-0.156,-0.1571,-0.1625,-0.1619,-0.1622,-0.1649,-0.1656,-0.1678,-0.1676,-0.172,-0.1679,-0.1726,-0.1698,-0.1705,-0.1701,-0.1489,-0.1556,-0.1387,-0.1329,-0.1695,-0.1697,-0.1699,-0.1701,0,-0.1397,-0.143,-0.1458,-0.1475,-0.1542,-0.1548,-0.158,-0.1603,-0.1611,-0.1606,-0.1626,-0.1608,-0.1619,-0.1584,-0.1578,-0.1636,-0.1494,-0.1597,-0.1428,-0.1421,-0.1272,-0.1254,-0.1482,-0.1483,-0.1483,-0.1483,-0.1484,0,-0.1376,-0.1392,-0.1445,-0.1463,-0.1464,-0.1528,-0.1534,-0.1547,-0.1581,-0.1563,-0.1592,-0.1557,-0.1583,-0.1516,-0.1508,-0.1385,-0.1434,-0.1347,-0.1352,-0.1325,-0.1314,-0.151,-0.1515,-0.1478,-0.1479,-0.148,-0.1481,0,-0.1337,-0.1382,-0.1397,-0.1449,-0.1453,-0.145,-0.1501,-0.1506,-0.1562,-0.1529,-0.1531,-0.1519,-0.1418,-0.1388,-0.1319,-0.1292,-0.121,-0.1138,-0.1078,-0.1075,-0.1176,-0.1191,-0.0959,-0.0953,-0.0948,-0.0943,-0.094,0,-0.1316,-0.1327,-0.1348,-0.1324,-0.1343,-0.136,-0.1362,-0.146,-0.1488,-0.1477,-0.1455,-0.1355,-0.125,-0.1089,-0.0993,-0.0882,-0.0985,-0.0768,-0.0854,-0.1081,-0.1111,-0.1134,-0.1154,-0.075,-0.0745,-0.0741,-0.0738,0,-0.1244,-0.1252,-0.1248,-0.1205,-0.1203,-0.1207,-0.1244,-0.1284,-0.1366,-0.1364,-0.1291,-0.1204,-0.1011,-0.0853,-0.0694,-0.0626,-0.0796,-0.0679,-0.0911,-0.0884,-0.087,-0.0905,-0.0935,-0.0702,-0.0706,-0.0709,-0.0711,-0.0712,-0.1141,-0.1101,-0.1081,-0.1035,-0.103,-0.103,-0.1019,-0.1086,-0.1101,-0.1066,-0.108,-0.0912,-0.0885,-0.0567,-0.0477,-0.0369,-0.0459,-0.049,-0.0509,-0.0531,-0.0521,-0.0498,-0.0258,-0.0259,-0.026,-0.0261,-0.0262,0,-0.0979,-0.0949,-0.09,-0.0849,-0.0811,-0.0864,-0.0907,-0.0896,-0.0865,-0.0816,-0.0754,-0.0599,-0.0479,-0.0403,-0.0209,-0.0179,-0.023,-0.0148,-0.0285,-0.0318,-0.0348,-0.0337,-0.0021,-0.002,-0.0019,-0.0019,0,0,-0.0877,-0.0782,-0.077,-0.0644,-0.0621,-0.0564,-0.0574,-0.0561,-0.054,-0.0435,-0.0346,-0.0373,-0.038,-0.0226,-0.0193,-0.0082,-0.0184,-0.0024,-0.0216,-0.0407,-0.0437,-0.0534,-0.055,0,0,0,0,0]},{"header":{"parameterUnit":"m.s-1","parameterCategory":2,"la1":30.2991,"la2":30.254,"lo1":-89.0895,"lo2":-89.0444,"dy":0.0017,"dx":0.0017,"nx":28,"ny":28,"refTime":"2024-05-28T21:00:00:Z","depth":"2","parameterNumber":3,"parameterNumberName":"V-component_of_CURRENTS"},"data":[0,0,0,0,0,0,0,0,0,0,0,0,0,0,0,0,0,0,0,0,0,0,0,0,0,0,0,0,0,0,0,0,0,0,0,0,0,0,0,0,0,0,0,0,0,0,0,0,0,0,0,0,0,0,0,0,0,0,-0.0478,-0.0475,0,-0.0324,-0.0323,-0.0323,-0.0356,-0.0357,-0.0359,-0.036,-0.0385,-0.0384,-0.0384,0,0,0,0,0,0,0,0,0,0,0,0,0,-0.0558,-0.056,-0.0478,-0.0475,-0.0471,-0.0324,-0.0323,-0.0323,-0.0356,-0.0357,-0.0359,-0.0361,-0.0385,-0.0384,-0.0383,0,0,0,0,0,0,0,0,0,0,0,0,0,-0.0492,-0.056,-0.0479,-0.0458,-0.0454,-0.0324,-0.0323,-0.0323,-0.0355,-0.0358,-0.036,-0.0362,-0.0385,-0.0384,-0.0383,-0.0335,0,0,-0.038,-0.038,0,0,0,0,0,0,0,0,-0.0496,-0.0491,-0.0465,-0.0459,-0.0454,-0.0347,-0.0359,-0.033,-0.0355,-0.041,-0.036,-0.0363,-0.0377,-0.0377,-0.0363,-0.0336,-0.0337,-0.038,-0.038,-0.0379,-0.0379,0,0,0,0,0,0,0,-0.0501,-0.0496,-0.0433,-0.0461,-0.0454,-0.0372,-0.0369,-0.0353,-0.0399,-0.0405,-0.0403,-0.036,-0.0378,-0.0364,-0.0364,-0.0337,-0.038,-0.0379,-0.0379,-0.0378,-0.0226,-0.0223,0,0,0,0,0,0,-0.0498,-0.0502,-0.0438,-0.0427,-0.0462,-0.0369,-0.0366,-0.0393,-0.0395,-0.0391,-0.0358,-0.0362,-0.0365,-0.0365,-0.0365,-0.0282,-0.0379,-0.0378,-0.0378,-0.023,-0.0226,-0.0222,0,0,0,0,0,0,-0.0502,-0.0497,-0.0444,-0.0443,-0.0429,-0.0366,-0.0394,-0.0388,-0.0374,-0.0354,-0.0359,-0.0349,-0.0366,-0.0367,-0.036,-0.0285,-0.0378,-0.0377,-0.0234,-0.0229,-0.0224,-0.0133,0,0,0,0,0,0,-0.0507,-0.0502,-0.0511,-0.0446,-0.0429,-0.0378,-0.039,-0.0383,-0.0336,-0.034,-0.0347,-0.0352,-0.0368,-0.0361,-0.0359,-0.0285,-0.0376,-0.0238,-0.0232,-0.0225,-0.014,-0.0125,-0.0113,0,0,0,0,0,-0.0511,-0.0526,-0.0515,-0.0504,-0.0451,-0.0375,-0.0361,-0.033,-0.0333,-0.0328,-0.0334,-0.0352,-0.0317,-0.0359,-0.0357,-0.0281,-0.0241,-0.0233,-0.0226,-0.0147,-0.0128,-0.0113,0,0,0,0,0,0,-0.0562,-0.0526,-0.0515,-0.0519,-0.0449,-0.0376,-0.0343,-0.032,-0.0315,-0.032,-0.0334,-0.0338,-0.0295,-0.0299,-0.0345,-0.0212,-0.027,-0.0261,-0.021,-0.0193,-0.0179,-0.0251,-0.0375,0,0,0,0,0,-0.0572,-0.0584,-0.0514,-0.0508,-0.0475,-0.0406,-0.0365,-0.034,-0.0311,-0.031,-0.0301,-0.0282,-0.0254,-0.0241,-0.0225,-0.0166,-0.0192,-0.0104,-0.009,-0.0078,-0.0131,-0.0053,-0.0038,-0.0196,-0.0197,-0.0197,0,0,-0.0572,-0.0559,-0.0556,-0.0516,-0.0462,-0.0423,-0.0394,-0.0327,-0.0318,-0.0312,-0.0301,-0.0245,-0.0231,-0.0167,-0.0143,-0.0167,-0.0046,-0.0068,-0.0059,-0.012,-0.0044,-0.0029,-0.0016,-0.0191,-0.0192,-0.0193,0,0,-0.0579,-0.058,-0.0586,-0.054,-0.0454,-0.0412,-0.0393,-0.031,-0.0307,-0.0279,-0.0243,-0.0149,-0.0143,-0.0069,-0.0049,0.0056,0.0018,0.0087,0.0103,0.0183,0.0195,0.0206,0.0181,0.0188,0.0104,0.0104,0.0104,0,-0.0583,-0.0596,-0.0561,-0.0547,-0.05,-0.0417,-0.0388,-0.0368,-0.0294,-0.0278,-0.0287,-0.0166,-0.0101,-0.0009,0.0054,0.0088,0.0073,0.0037,0.0198,0.0208,0.0216,0.0189,0.0196,0.0109,0.0109,0.0108,0.0108,0,-0.0583,-0.0588,-0.0574,-0.0554,-0.0505,-0.0454,-0.0403,-0.0362,-0.0335,-0.0302,-0.0224,-0.0127,-0.0057,0.0038,0.0068,0.021,0.0157,0.0199,0.0144,0.0237,0.0203,0.0208,0.0117,0.0115,0.0113,0.0112,0,0,-0.0617,-0.0587,-0.0585,-0.0576,-0.0503,-0.0463,-0.0439,-0.0384,-0.0367,-0.03,-0.0275,-0.0119,-0.0041,-0.0008,0.0111,0.0216,0.0332,0.0239,0.0241,0.0189,0.0417,0.0383,0.0384,0.0402,0.0404,0.0406,0.0361,0,-0.0623,-0.0624,-0.0598,-0.0571,-0.0552,-0.0481,-0.047,-0.0414,-0.0374,-0.0331,-0.0226,-0.0157,-0.0075,0.0014,0.0126,0.0287,0.035,0.0332,0.0351,0.0349,0.0291,0.0393,0.0331,0.0287,0.0366,0.0367,0.0368,0,-0.0635,-0.0635,-0.063,-0.0594,-0.0577,-0.0557,-0.0494,-0.047,-0.0402,-0.0374,-0.0294,-0.0226,-0.0059,0.0003,0.0205,0.0181,0.0282,0.0382,0.0384,0.0307,0.0327,0.0213,0.0293,0.0376,0.0375,0.0374,0.0374,0,-0.0681,-0.0656,-0.0661,-0.0644,-0.0594,-0.0585,-0.0549,-0.0481,-0.0469,-0.0389,-0.0348,-0.0228,-0.0117,-0.0002,0.0196,0.0211,0.0374,0.0427,0.0448,0.0442,0.0363,0.0348,0.0529,0.053,0.053,0.053,0.053,0,-0.0713,-0.0712,-0.0691,-0.0695,-0.0686,-0.0635,-0.0622,-0.0566,-0.0513,-0.0462,-0.0369,-0.0292,-0.0097,0.0019,0.0145,0.0288,0.0323,0.0424,0.0448,0.0393,0.0383,0.0438,0.0428,0.0528,0.0528,0.0529,0.0529,0,-0.077,-0.0757,-0.0758,-0.0727,-0.0718,-0.0715,-0.068,-0.0663,-0.0594,-0.0521,-0.0491,-0.0327,-0.0152,-0.0026,0.0203,0.0256,0.0384,0.042,0.0284,0.0294,0.0386,0.0382,0.0413,0.0412,0.0411,0.041,0.0409,0,-0.0801,-0.0815,-0.0798,-0.0794,-0.0787,-0.0782,-0.0769,-0.0718,-0.0685,-0.0523,-0.048,-0.0307,-0.0169,0.0043,0.0184,0.0292,0.037,0.0291,0.0344,0.0363,0.0384,0.0381,0.0378,0.0259,0.0257,0.0256,0.0254,0,-0.0848,-0.0847,-0.0844,-0.0845,-0.0843,-0.083,-0.0802,-0.0796,-0.069,-0.0609,-0.0439,-0.0327,-0.0118,0.0012,0.0133,0.0205,0.0261,0.0263,0.0361,0.0307,0.0219,0.0239,0.0241,0.0241,0.0242,0.0243,0.0244,0.0245,-0.0869,-0.0876,-0.0871,-0.0869,-0.0858,-0.0831,-0.0813,-0.0757,-0.0689,-0.0509,-0.0437,-0.0248,-0.0172,0.0023,0.0102,0.0189,0.0213,0.0225,0.023,0.0237,0.0236,0.0154,0.0156,0.0156,0.0157,0.0158,0.0158,0,-0.0876,-0.0874,-0.0881,-0.0855,-0.0834,-0.0838,-0.0786,-0.0738,-0.062,-0.0475,-0.0335,-0.0228,-0.0143,-0.002,0.0083,0.0122,0.0145,0.0146,0.0152,0.0162,0.0171,0.017,0.0071,0.0072,0.0072,0.0073,0,0,-0.0869,-0.0872,-0.0876,-0.0827,-0.081,-0.0767,-0.0732,-0.0636,-0.0527,-0.0355,-0.0238,-0.0192,-0.0114,-0.0063,-0.0029,0.0041,0.011,0.0056,0.0106,0.0114,0.0125,0.0178,0.0181,0,0,0,0,0]}],[{"header":{"parameterUnit":"m.s-1","parameterCategory":2,"la1":30.2991,"la2":30.254,"lo1":-89.0895,"lo2":-89.0444,"dy":0.0017,"dx":0.0017,"nx":28,"ny":28,"refTime":"2024-05-28T21:00:00:Z","depth":"4","parameterNumber":2,"parameterNumberName":"U-component_of_CURRENTS"},"data":[0,0,0,0,0,0,0,0,0,0,0,0,0,0,0,0,0,0,0,0,0,0,0,0,0,0,0,0,0,0,0,0,0,0,0,0,0,0,0,0,0,0,0,0,0,0,0,0,0,0,0,0,0,0,0,0,0,0,-0.0808,-0.0808,0,-0.0732,-0.0731,-0.073,-0.0686,-0.0686,-0.0686,-0.0686,-0.0697,-0.0697,-0.0697,0,0,0,0,0,0,0,0,0,0,0,0,0,-0.0881,-0.088,-0.0809,-0.0808,-0.0807,-0.0732,-0.0731,-0.073,-0.0686,-0.0686,-0.0686,-0.0686,-0.0697,-0.0697,-0.0697,0,0,0,0,0,0,0,0,0,0,0,0,0,-0.083,-0.0879,-0.0809,-0.0777,-0.0774,-0.0732,-0.0731,-0.0729,-0.0686,-0.0686,-0.0686,-0.0686,-0.0697,-0.0697,-0.0697,-0.0701,0,0,-0.0699,-0.0699,0,0,0,0,0,0,0,0,-0.0833,-0.0827,-0.0783,-0.0779,-0.0775,-0.072,-0.076,-0.0725,-0.0686,-0.0717,-0.0686,-0.0686,-0.0714,-0.0713,-0.0695,-0.0702,-0.0702,-0.0699,-0.0699,-0.0699,-0.07,0,0,0,0,0,0,0,-0.0836,-0.083,-0.0777,-0.0782,-0.0777,-0.0755,-0.0748,-0.0753,-0.0717,-0.0715,-0.0712,-0.0706,-0.0712,-0.0694,-0.0695,-0.0702,-0.0699,-0.0699,-0.07,-0.07,-0.0738,-0.0739,0,0,0,0,0,0,-0.0851,-0.0833,-0.0779,-0.0774,-0.0806,-0.0754,-0.0746,-0.0736,-0.0715,-0.0711,-0.0706,-0.0704,-0.0694,-0.0695,-0.0696,-0.0718,-0.0699,-0.07,-0.07,-0.0737,-0.0738,-0.0739,0,0,0,0,0,0,-0.0853,-0.0847,-0.0782,-0.0804,-0.0794,-0.0753,-0.0743,-0.0735,-0.0726,-0.0708,-0.0705,-0.0706,-0.0694,-0.0695,-0.0714,-0.0718,-0.07,-0.0701,-0.0737,-0.0738,-0.0739,-0.0752,0,0,0,0,0,0,-0.0855,-0.0848,-0.085,-0.0805,-0.0794,-0.0768,-0.0742,-0.0733,-0.0722,-0.0719,-0.0707,-0.0707,-0.0694,-0.0713,-0.0714,-0.0718,-0.0701,-0.0736,-0.0737,-0.0738,-0.0751,-0.0753,-0.0756,0,0,0,0,0,-0.0858,-0.0863,-0.085,-0.0844,-0.0796,-0.0769,-0.0761,-0.073,-0.0723,-0.0722,-0.0718,-0.0708,-0.0722,-0.0714,-0.0715,-0.072,-0.0735,-0.0737,-0.0738,-0.0749,-0.0753,-0.0756,0,0,0,0,0,0,-0.0889,-0.0857,-0.0843,-0.0836,-0.081,-0.0762,-0.0757,-0.074,-0.0732,-0.0744,-0.0721,-0.0721,-0.0735,-0.0733,-0.0725,-0.0736,-0.0726,-0.0728,-0.0734,-0.0737,-0.074,-0.0743,-0.0701,0,0,0,0,0,-0.0899,-0.0896,-0.0859,-0.0853,-0.0842,-0.0803,-0.0791,-0.0779,-0.0763,-0.0758,-0.0745,-0.0743,-0.074,-0.0745,-0.0743,-0.0757,-0.0752,-0.0761,-0.0763,-0.0765,-0.077,-0.0776,-0.078,-0.0745,-0.0744,-0.0744,0,0,-0.0907,-0.0891,-0.0887,-0.086,-0.0835,-0.0831,-0.0795,-0.0791,-0.079,-0.0766,-0.0765,-0.0754,-0.0746,-0.0752,-0.0758,-0.0754,-0.0771,-0.0767,-0.0769,-0.0773,-0.0778,-0.0782,-0.0785,-0.0746,-0.0745,-0.0745,0,0,-0.0922,-0.0909,-0.091,-0.0901,-0.0884,-0.0864,-0.0868,-0.0835,-0.0821,-0.0822,-0.0803,-0.0796,-0.0793,-0.0777,-0.0772,-0.0793,-0.0783,-0.0797,-0.0814,-0.082,-0.0823,-0.0825,-0.0812,-0.0813,-0.08,-0.08,-0.08,0,-0.0932,-0.0931,-0.0906,-0.0912,-0.0912,-0.0883,-0.0894,-0.0874,-0.0853,-0.0849,-0.0833,-0.0813,-0.0799,-0.0801,-0.0797,-0.0797,-0.0799,-0.08,-0.0823,-0.0825,-0.0827,-0.0813,-0.0814,-0.0801,-0.0801,-0.0801,-0.0801,0,-0.0944,-0.0954,-0.0956,-0.0954,-0.0953,-0.0961,-0.094,-0.0941,-0.0923,-0.0898,-0.0891,-0.086,-0.0852,-0.0836,-0.0819,-0.0828,-0.0823,-0.0823,-0.0812,-0.0832,-0.0816,-0.0816,-0.0802,-0.0802,-0.0802,-0.0801,0,0,-0.0934,-0.096,-0.0963,-0.0974,-0.0986,-0.098,-0.0997,-0.0988,-0.0992,-0.0961,-0.0952,-0.0921,-0.0902,-0.0895,-0.087,-0.0858,-0.0855,-0.0849,-0.0849,-0.0831,-0.0863,-0.0762,-0.0753,-0.0867,-0.0867,-0.0868,-0.084,0,-0.0946,-0.0977,-0.099,-0.1019,-0.1028,-0.1036,-0.1045,-0.1045,-0.1029,-0.1013,-0.0974,-0.0953,-0.0926,-0.0915,-0.0906,-0.0861,-0.0861,-0.0862,-0.0851,-0.0851,-0.0755,-0.0752,-0.0869,-0.0841,-0.0841,-0.0841,-0.0841,0,-0.0948,-0.097,-0.1012,-0.105,-0.1054,-0.1076,-0.1098,-0.1101,-0.1088,-0.1074,-0.1062,-0.1028,-0.0994,-0.0969,-0.0928,-0.0934,-0.0912,-0.0875,-0.0874,-0.0777,-0.0752,-0.0822,-0.0843,-0.0843,-0.0843,-0.0843,-0.0842,0,-0.0942,-0.0983,-0.1021,-0.1036,-0.1075,-0.1099,-0.1112,-0.1121,-0.1105,-0.1107,-0.1093,-0.1075,-0.1036,-0.1018,-0.0932,-0.0946,-0.0872,-0.0887,-0.0783,-0.0775,-0.0869,-0.0867,-0.0887,-0.0887,-0.0887,-0.0887,-0.0887,0,-0.0948,-0.0976,-0.1022,-0.1044,-0.1063,-0.1103,-0.1115,-0.1129,-0.1131,-0.1098,-0.1118,-0.1079,-0.1047,-0.0992,-0.095,-0.0842,-0.0897,-0.0779,-0.0761,-0.0873,-0.0872,-0.0868,-0.0867,-0.0886,-0.0886,-0.0886,-0.0886,0,-0.0933,-0.0975,-0.1003,-0.1053,-0.1061,-0.107,-0.1082,-0.1076,-0.1112,-0.1073,-0.1068,-0.1062,-0.0995,-0.0946,-0.0883,-0.0834,-0.076,-0.0722,-0.0821,-0.0811,-0.0664,-0.0664,-0.0619,-0.0616,-0.0612,-0.061,-0.0608,0,-0.0926,-0.0945,-0.0984,-0.0975,-0.0996,-0.1009,-0.1,-0.1041,-0.1024,-0.1037,-0.1,-0.0964,-0.0941,-0.0776,-0.0756,-0.0675,-0.0663,-0.0636,-0.0674,-0.0649,-0.0637,-0.0641,-0.0645,-0.0602,-0.0602,-0.0601,-0.06,0,-0.0884,-0.0907,-0.0916,-0.0904,-0.0899,-0.0888,-0.0889,-0.0872,-0.0904,-0.0947,-0.0891,-0.0845,-0.0769,-0.0708,-0.0637,-0.0587,-0.0656,-0.0603,-0.0611,-0.0646,-0.0628,-0.062,-0.0627,-0.0589,-0.059,-0.0591,-0.0592,0,-0.0822,-0.0805,-0.081,-0.079,-0.0785,-0.0757,-0.078,-0.0756,-0.0754,-0.0792,-0.0762,-0.0744,-0.0752,-0.066,-0.0592,-0.0526,-0.0529,-0.0517,-0.0529,-0.0542,-0.0522,-0.0488,-0.0383,0,0,0,0,0,-0.0737,-0.07,-0.0682,-0.0655,-0.0662,-0.0661,-0.0686,-0.0718,-0.0761,-0.0691,-0.0728,-0.0657,-0.0575,-0.0573,-0.0483,-0.0542,-0.0522,-0.0435,-0.0515,-0.0527,-0.054,-0.052,0,0,0,0,0,0,-0.0666,-0.0644,-0.064,-0.0552,-0.0519,-0.0511,-0.0529,-0.0572,-0.0549,-0.0603,-0.0563,-0.06,-0.053,-0.0598,-0.0462,-0.0454,-0.0485,-0.0428,-0.0425,-0.052,-0.0532,-0.0542,-0.0526,0,0,0,0,0]},{"header":{"parameterUnit":"m.s-1","parameterCategory":2,"la1":30.2991,"la2":30.254,"lo1":-89.0895,"lo2":-89.0444,"dy":0.0017,"dx":0.0017,"nx":28,"ny":28,"refTime":"2024-05-28T21:00:00:Z","depth":"4","parameterNumber":3,"parameterNumberName":"V-component_of_CURRENTS"},"data":[0,0,0,0,0,0,0,0,0,0,0,0,0,0,0,0,0,0,0,0,0,0,0,0,0,0,0,0,0,0,0,0,0,0,0,0,0,0,0,0,0,0,0,0,0,0,0,0,0,0,0,0,0,0,0,0,0,0,-0.0462,-0.0462,0,-0.0557,-0.0559,-0.0561,-0.0632,-0.0632,-0.0631,-0.0631,-0.0612,-0.0612,-0.0612,0,0,0,0,0,0,0,0,0,0,0,0,0,-0.0414,-0.0415,-0.0462,-0.0462,-0.0462,-0.0557,-0.0559,-0.0562,-0.0632,-0.0632,-0.0631,-0.0631,-0.0612,-0.0612,-0.0612,0,0,0,0,0,0,0,0,0,0,0,0,0,-0.0475,-0.0415,-0.0462,-0.05,-0.0504,-0.0557,-0.056,-0.0562,-0.0632,-0.0632,-0.0631,-0.063,-0.0612,-0.0612,-0.0612,-0.0623,0,0,-0.0611,-0.0611,0,0,0,0,0,0,0,0,-0.0471,-0.0478,-0.0494,-0.0498,-0.0502,-0.0572,-0.0535,-0.0573,-0.0632,-0.0595,-0.0631,-0.063,-0.0581,-0.0584,-0.0621,-0.0622,-0.0621,-0.0611,-0.0611,-0.0611,-0.0611,0,0,0,0,0,0,0,-0.0467,-0.0474,-0.0511,-0.0494,-0.0499,-0.0537,-0.0546,-0.0544,-0.0597,-0.0599,-0.0601,-0.0594,-0.0584,-0.0621,-0.062,-0.0621,-0.0611,-0.0611,-0.0611,-0.0611,-0.063,-0.0631,0,0,0,0,0,0,-0.0429,-0.047,-0.0508,-0.0513,-0.0472,-0.0537,-0.0548,-0.0559,-0.06,-0.0603,-0.0595,-0.0597,-0.0621,-0.062,-0.0619,-0.0617,-0.0611,-0.0611,-0.0611,-0.063,-0.063,-0.0631,0,0,0,0,0,0,-0.0428,-0.0433,-0.0504,-0.0484,-0.0494,-0.0537,-0.0551,-0.0561,-0.0599,-0.0596,-0.0599,-0.0619,-0.0621,-0.0619,-0.0618,-0.0617,-0.0611,-0.0611,-0.0629,-0.063,-0.0631,-0.0623,0,0,0,0,0,0,-0.0427,-0.0433,-0.0443,-0.0481,-0.0493,-0.0526,-0.0551,-0.0563,-0.059,-0.0594,-0.0617,-0.0616,-0.062,-0.0618,-0.0618,-0.0617,-0.061,-0.0628,-0.0629,-0.063,-0.0622,-0.0623,-0.0624,0,0,0,0,0,-0.0426,-0.0438,-0.0444,-0.0448,-0.0502,-0.0525,-0.0536,-0.0572,-0.0591,-0.0607,-0.0623,-0.0615,-0.0625,-0.0618,-0.0618,-0.0616,-0.0628,-0.0629,-0.063,-0.0622,-0.0623,-0.0624,0,0,0,0,0,0,-0.0429,-0.0446,-0.0454,-0.0473,-0.0488,-0.0532,-0.0547,-0.0573,-0.0608,-0.061,-0.062,-0.0619,-0.0622,-0.0622,-0.0614,-0.0629,-0.0627,-0.0628,-0.0621,-0.0622,-0.0623,-0.0585,-0.061,0,0,0,0,0,-0.0429,-0.0442,-0.0457,-0.0473,-0.0475,-0.0514,-0.0532,-0.0554,-0.0577,-0.0596,-0.0617,-0.0629,-0.0631,-0.0626,-0.0636,-0.0636,-0.061,-0.0638,-0.0639,-0.064,-0.061,-0.0582,-0.0576,-0.0636,-0.0636,-0.0636,0,0,-0.043,-0.0442,-0.0449,-0.0473,-0.0492,-0.0493,-0.0527,-0.0547,-0.0559,-0.0581,-0.0616,-0.0634,-0.0633,-0.0642,-0.0642,-0.0637,-0.0612,-0.0641,-0.0642,-0.0611,-0.0582,-0.0576,-0.057,-0.0637,-0.0637,-0.0636,0,0,-0.0432,-0.045,-0.0456,-0.046,-0.0472,-0.0489,-0.0489,-0.0534,-0.0565,-0.0589,-0.061,-0.0619,-0.0643,-0.064,-0.0636,-0.0645,-0.0623,-0.0662,-0.0627,-0.0601,-0.0594,-0.0588,-0.0555,-0.0546,-0.0657,-0.0657,-0.0657,0,-0.0435,-0.0444,-0.0461,-0.0458,-0.0453,-0.0479,-0.0473,-0.0505,-0.0552,-0.0561,-0.0591,-0.062,-0.0633,-0.0609,-0.0625,-0.0642,-0.0623,-0.0621,-0.0598,-0.0592,-0.0586,-0.0553,-0.0543,-0.0657,-0.0657,-0.0657,-0.0657,0,-0.043,-0.0436,-0.0434,-0.0434,-0.0433,-0.0435,-0.0447,-0.0469,-0.0505,-0.0534,-0.0548,-0.0579,-0.0581,-0.0605,-0.0617,-0.0587,-0.0587,-0.0606,-0.0587,-0.0579,-0.0545,-0.0535,-0.0656,-0.0656,-0.0656,-0.0656,0,0,-0.0445,-0.0435,-0.0436,-0.0427,-0.0419,-0.0421,-0.0414,-0.042,-0.0416,-0.0471,-0.0464,-0.0497,-0.0518,-0.0515,-0.054,-0.0528,-0.0492,-0.055,-0.0549,-0.0501,-0.0423,-0.0444,-0.0435,-0.0509,-0.0508,-0.0506,-0.0418,0,-0.0439,-0.0433,-0.0422,-0.0404,-0.0396,-0.0385,-0.0378,-0.0381,-0.0399,-0.0405,-0.0424,-0.0437,-0.0482,-0.0489,-0.0478,-0.0495,-0.0464,-0.0513,-0.045,-0.0447,-0.0455,-0.0424,-0.05,-0.0411,-0.0408,-0.0407,-0.0405,0,-0.044,-0.0434,-0.0423,-0.039,-0.0383,-0.0374,-0.0344,-0.0341,-0.0328,-0.0341,-0.0331,-0.0352,-0.0339,-0.0388,-0.036,-0.0392,-0.0391,-0.0403,-0.04,-0.0406,-0.0449,-0.0421,-0.0387,-0.0388,-0.039,-0.0391,-0.0392,0,-0.046,-0.0432,-0.0428,-0.0416,-0.0385,-0.0374,-0.0356,-0.0333,-0.0339,-0.0297,-0.0301,-0.0268,-0.0285,-0.0261,-0.0302,-0.0321,-0.0275,-0.03,-0.0302,-0.0304,-0.0314,-0.0321,-0.0246,-0.0246,-0.0246,-0.0246,-0.0247,0,-0.0465,-0.0459,-0.0442,-0.0442,-0.043,-0.039,-0.0379,-0.0349,-0.0319,-0.032,-0.0281,-0.0285,-0.0261,-0.025,-0.0254,-0.0252,-0.0229,-0.0268,-0.0274,-0.0317,-0.0325,-0.0307,-0.0315,-0.0243,-0.0244,-0.0244,-0.0245,0,-0.0498,-0.0487,-0.0485,-0.0457,-0.045,-0.0446,-0.0422,-0.0403,-0.0369,-0.0358,-0.0349,-0.0304,-0.0274,-0.0246,-0.0213,-0.0214,-0.0194,-0.0195,-0.0227,-0.0241,-0.0241,-0.025,-0.015,-0.015,-0.015,-0.015,-0.015,0,-0.0514,-0.0521,-0.0519,-0.052,-0.0515,-0.0505,-0.0491,-0.0447,-0.0424,-0.0393,-0.0383,-0.0344,-0.0317,-0.0254,-0.0233,-0.0171,-0.019,-0.0154,-0.0195,-0.021,-0.0226,-0.0236,-0.0245,-0.0149,-0.0149,-0.0149,-0.0149,0,-0.0541,-0.0556,-0.0558,-0.0567,-0.0563,-0.0547,-0.052,-0.0513,-0.0457,-0.0451,-0.0401,-0.0358,-0.0318,-0.0259,-0.0209,-0.0187,-0.0158,-0.0153,-0.0153,-0.0191,-0.0208,-0.0227,-0.0236,-0.0149,-0.0149,-0.0149,-0.0149,0,-0.0565,-0.058,-0.059,-0.059,-0.0585,-0.0552,-0.0549,-0.05,-0.0477,-0.0425,-0.0428,-0.037,-0.0339,-0.027,-0.0243,-0.0195,-0.019,-0.0178,-0.0177,-0.0177,-0.0229,-0.0258,-0.0192,0,0,0,0,0,-0.0573,-0.0582,-0.0594,-0.0584,-0.0578,-0.0569,-0.0534,-0.052,-0.0494,-0.0454,-0.0429,-0.0386,-0.0318,-0.0291,-0.0241,-0.0253,-0.0191,-0.0196,-0.0179,-0.0146,-0.0147,-0.0207,0,0,0,0,0,0,-0.0571,-0.0594,-0.0595,-0.0569,-0.056,-0.0539,-0.0515,-0.0502,-0.0462,-0.0444,-0.0397,-0.0391,-0.0315,-0.0348,-0.0248,-0.0238,-0.0223,-0.0168,-0.0167,-0.0146,-0.0146,-0.0147,-0.0209,0,0,0,0,0]}]]